When you browse on this site, cookies collect data to enhance your experience and personalize the content and advertising you see.
Visit our Privacy Policy to learn more. By continuing to use the site, you agree to this use of cookies and data.
  • In Germany
  • List of Countries
  • For 7 days
  • Water Temperature
  • Weather Map
  • Weather Widgets
  • user-avatar
    Login

    Hourly Weather Lezhe

    Today, 22 August, Thursday

    Time Temperature Precipitation Wind Pressure Humidity
    00:00 +25°C° 0 mm 2 mps 739 mmHg 40%
    01:00 +25°C° 0 mm 3 mps 740 mmHg 42%
    02:00 +24°C° 0 mm 3 mps 740 mmHg 43%
    03:00 +24°C° 0 mm 2 mps 739 mmHg 44%
    04:00 +23°C° 0 mm 2 mps 739 mmHg 44%
    05:00 +25°C° 0 mm 2 mps 740 mmHg 41%
    06:00 +27°C° 0 mm 2 mps 740 mmHg 38%
    07:00 +29°C° 0 mm 3 mps 741 mmHg 34%
    08:00 +31°C° 0 mm 3 mps 741 mmHg 31%
    09:00 +34°C° 0 mm 3 mps 740 mmHg 27%
    10:00 +36°C° 0 mm 3 mps 740 mmHg 23%
    11:00 +37°C° 0 mm 3 mps 740 mmHg 22%
    12:00 +37°C° 0 mm 3 mps 740 mmHg 21%
    13:00 +38°C° 0 mm 4 mps 740 mmHg 20%
    14:00 +38°C° 0 mm 3 mps 740 mmHg 21%
    15:00 +37°C° 0 mm 3 mps 740 mmHg 22%
    16:00 +37°C° 0 mm 3 mps 739 mmHg 23%
    17:00 +34°C° 0 mm 3 mps 739 mmHg 29%
    18:00 +30°C° 0 mm 2 mps 740 mmHg 34%
    19:00 +27°C° 0 mm 1 mps 740 mmHg 40%
    20:00 +27°C° 0 mm 2 mps 740 mmHg 40%
    21:00 +26°C° 0 mm 2 mps 740 mmHg 40%
    22:00 +26°C° 0 mm 2 mps 740 mmHg 41%
    23:00 +26°C° 0 mm 2 mps 740 mmHg 42%

    Tomorrow, 23 August, Friday

    Time Temperature Precipitation Wind Pressure Humidity
    00:00 +25°C° 0 mm 2 mps 740 mmHg 43%
    01:00 +25°C° 0 mm 2 mps 740 mmHg 44%
    02:00 +25°C° 0 mm 2 mps 740 mmHg 46%
    03:00 +24°C° 0 mm 2 mps 740 mmHg 47%
    04:00 +24°C° 0 mm 2 mps 740 mmHg 48%
    05:00 +26°C° 0 mm 2 mps 740 mmHg 45%
    06:00 +27°C° 0 mm 2 mps 740 mmHg 42%
    07:00 +29°C° 0 mm 2 mps 740 mmHg 40%
    08:00 +31°C° 0 mm 2 mps 741 mmHg 35%
    09:00 +35°C° 0 mm 2 mps 741 mmHg 30%
    10:00 +37°C° 0 mm 2 mps 741 mmHg 25%
    11:00 +37°C° 0 mm 2 mps 741 mmHg 24%
    12:00 +37°C° 0 mm 3 mps 740 mmHg 24%
    13:00 +37°C° 0 mm 3 mps 740 mmHg 23%
    14:00 +37°C° 0 mm 3 mps 739 mmHg 25%
    15:00 +36°C° 0 mm 3 mps 739 mmHg 26%
    16:00 +36°C° 0 mm 2 mps 739 mmHg 28%
    17:00 +34°C° 0 mm 2 mps 739 mmHg 31%
    18:00 +31°C° 0 mm 2 mps 739 mmHg 35%
    19:00 +29°C° 0 mm 2 mps 739 mmHg 39%
    20:00 +29°C° 0 mm 2 mps 739 mmHg 39%
    21:00 +28°C° 0 mm 2 mps 739 mmHg 40%
    22:00 +28°C° 0 mm 2 mps 739 mmHg 40%
    23:00 +27°C° 0 mm 2 mps 739 mmHg 41%

    Day after tomorrow, 24 August, Saturday

    Time Temperature Precipitation Wind Pressure Humidity
    00:00 +27°C° 0 mm 2 mps 739 mmHg 42%
    01:00 +27°C° 0 mm 2 mps 739 mmHg 43%
    02:00 +27°C° 0 mm 2 mps 739 mmHg 44%
    03:00 +26°C° 0 mm 2 mps 739 mmHg 44%
    04:00 +26°C° 0 mm 3 mps 739 mmHg 45%
    05:00 +27°C° 0 mm 2 mps 739 mmHg 43%
    06:00 +28°C° 0 mm 2 mps 739 mmHg 42%
    07:00 +28°C° 0 mm 2 mps 739 mmHg 41%
    08:00 +30°C° 0 mm 2 mps 739 mmHg 36%
    09:00 +34°C° 0 mm 2 mps 739 mmHg 31%
    10:00 +36°C° 0 mm 2 mps 739 mmHg 27%
    11:00 +36°C° 0 mm 2 mps 739 mmHg 26%
    12:00 +37°C° 0 mm 3 mps 739 mmHg 26%
    13:00 +37°C° 0 mm 3 mps 738 mmHg 26%
    14:00 +34°C° 0.5 mm 3 mps 738 mmHg 38%
    15:00 +30°C° 0.5 mm 3 mps 738 mmHg 51%
    16:00 +26°C° 0.5 mm 4 mps 738 mmHg 63%
    17:00 +26°C° 0.1 mm 3 mps 738 mmHg 63%
    18:00 +26°C° 0.1 mm 3 mps 738 mmHg 62%
    19:00 +25°C° 0.1 mm 3 mps 738 mmHg 61%
    20:00 +25°C° 0 mm 3 mps 738 mmHg 60%
    21:00 +25°C° 0 mm 2 mps 739 mmHg 59%
    22:00 +25°C° 0 mm 2 mps 739 mmHg 58%
    23:00 +25°C° 0.1 mm 2 mps 739 mmHg 60%

    25 August, Sunday

    Time Temperature Precipitation Wind Pressure Humidity
    00:00 +24°C° 0.1 mm 2 mps 738 mmHg 61%
    01:00 +24°C° 0.1 mm 2 mps 738 mmHg 63%
    02:00 +23°C° 0.3 mm 2 mps 738 mmHg 65%
    03:00 +23°C° 0.3 mm 2 mps 738 mmHg 67%
    04:00 +22°C° 0.3 mm 3 mps 738 mmHg 68%
    05:00 +24°C° 0.4 mm 2 mps 738 mmHg 66%
    06:00 +25°C° 0.4 mm 2 mps 738 mmHg 63%
    07:00 +26°C° 0.4 mm 2 mps 738 mmHg 60%
    08:00 +29°C° 0.1 mm 2 mps 738 mmHg 51%
    09:00 +32°C° 0.1 mm 1 mps 738 mmHg 41%
    10:00 +35°C° 0.1 mm 1 mps 738 mmHg 31%
    11:00 +36°C° 0 mm 2 mps 738 mmHg 30%
    12:00 +37°C° 0 mm 3 mps 738 mmHg 29%
    13:00 +37°C° 0 mm 3 mps 738 mmHg 27%
    14:00 +35°C° 0.1 mm 3 mps 737 mmHg 34%
    15:00 +33°C° 0.1 mm 3 mps 737 mmHg 41%
    16:00 +30°C° 0.1 mm 3 mps 737 mmHg 48%
    17:00 +28°C° 0.5 mm 3 mps 737 mmHg 58%
    18:00 +26°C° 0.5 mm 3 mps 738 mmHg 67%
    19:00 +24°C° 0.5 mm 3 mps 738 mmHg 76%
    20:00 +22°C° 0.1 mm 3 mps 738 mmHg 77%
    21:00 +22°C° 0.1 mm 3 mps 738 mmHg 78%
    22:00 +21°C° 0.1 mm 3 mps 739 mmHg 78%
    23:00 +21°C° 0 mm 3 mps 738 mmHg 77%

    26 August, Monday

    Time Temperature Precipitation Wind Pressure Humidity
    00:00 +21°C° 0 mm 3 mps 738 mmHg 76%
    01:00 +20°C° 0 mm 3 mps 737 mmHg 74%
    02:00 +20°C° 0 mm 3 mps 737 mmHg 74%
    03:00 +20°C° 0 mm 3 mps 737 mmHg 73%
    04:00 +20°C° 0 mm 3 mps 737 mmHg 73%
    05:00 +22°C° 0 mm 3 mps 737 mmHg 68%
    06:00 +24°C° 0 mm 3 mps 738 mmHg 63%
    07:00 +26°C° 0 mm 2 mps 738 mmHg 59%
    08:00 +29°C° 0 mm 2 mps 738 mmHg 50%
    09:00 +31°C° 0 mm 2 mps 738 mmHg 41%
    10:00 +34°C° 0 mm 1 mps 738 mmHg 32%
    11:00 +36°C° 0 mm 2 mps 738 mmHg 31%
    12:00 +36°C° 0 mm 3 mps 738 mmHg 29%
    13:00 +36°C° 0 mm 3 mps 737 mmHg 28%
    14:00 +35°C° 0.1 mm 3 mps 737 mmHg 34%
    15:00 +33°C° 0.1 mm 3 mps 737 mmHg 40%
    16:00 +31°C° 0.1 mm 3 mps 737 mmHg 45%
    17:00 +28°C° 0.2 mm 3 mps 738 mmHg 56%
    18:00 +25°C° 0.2 mm 3 mps 738 mmHg 67%
    19:00 +22°C° 0.2 mm 3 mps 738 mmHg 78%
    20:00 +21°C° 0 mm 3 mps 738 mmHg 77%
    21:00 +21°C° 0 mm 3 mps 738 mmHg 76%
    22:00 +21°C° 0 mm 3 mps 738 mmHg 75%
    23:00 +21°C° 0 mm 3 mps 738 mmHg 74%

    27 August, Tuesday

    Time Temperature Precipitation Wind Pressure Humidity
    00:00 +20°C° 0 mm 2 mps 738 mmHg 73%
    01:00 +20°C° 0 mm 2 mps 738 mmHg 71%
    02:00 +20°C° 0 mm 2 mps 738 mmHg 70%
    03:00 +20°C° 0 mm 2 mps 737 mmHg 69%
    04:00 +20°C° 0 mm 2 mps 737 mmHg 68%
    05:00 +23°C° 0 mm 2 mps 737 mmHg 63%
    06:00 +24°C° 0 mm 2 mps 738 mmHg 59%
    07:00 +26°C° 0 mm 2 mps 738 mmHg 54%
    08:00 +29°C° 0 mm 2 mps 738 mmHg 46%
    09:00 +32°C° 0 mm 1 mps 738 mmHg 38%
    10:00 +35°C° 0 mm 1 mps 738 mmHg 30%
    11:00 +36°C° 0 mm 2 mps 738 mmHg 29%
    12:00 +36°C° 0 mm 3 mps 738 mmHg 28%
    13:00 +36°C° 0 mm 4 mps 738 mmHg 27%
    14:00 +35°C° 0 mm 3 mps 738 mmHg 31%
    15:00 +34°C° 0 mm 3 mps 738 mmHg 34%
    16:00 +33°C° 0 mm 3 mps 738 mmHg 38%
    17:00 +30°C° 0 mm 2 mps 738 mmHg 46%
    18:00 +27°C° 0 mm 2 mps 738 mmHg 54%
    19:00 +25°C° 0 mm 1 mps 738 mmHg 63%
    20:00 +24°C° 0 mm 2 mps 738 mmHg 63%
    21:00 +24°C° 0 mm 2 mps 738 mmHg 64%
    22:00 +23°C° 0 mm 2 mps 738 mmHg 64%
    23:00 +23°C° 0 mm 2 mps 738 mmHg 64%
    Show more